Regional Weather Roundup
Issued by NWS

Home | Current Version | Previous Version | Text Only | Print | Product List | Glossary On
Versions: 1 2 3 4 5 6 7 8 9 10 11 12 13 14 15 16 17 18 19 20 21 22 23 24 25 26 27 28 29 30 31 32 33 34 35 36 37 38 39 40 41 42 43 44 45 46 47 48 49 50
000
ASUS43 KLSX 231707
RWRMO

WEATHER SUMMARY FOR MISSOURI
NATIONAL WEATHER SERVICE SPRINGFIELD MO
1200 PM CDT SAT MAY 23 2015

NOTE: "FAIR" INDICATES FEW OR NO CLOUDS BELOW 12,000 FEET WITH NO
       SIGNIFICANT WEATHER AND/OR OBSTRUCTIONS TO VISIBILITY.
       CURRENT SKY AND/OR WEATHER CONDITIONS ARE NOT AVAILABLE FOR
       CHILLICOTHE AND FARMINGTON.

MOZ001>031-035>038-043-044-053-054-231800-
...NORTHERN AND WESTERN MISSOURI...

CITY           SKY/WX    TMP DP  RH WIND       PRES   REMARKS
KANSAS CTY INT CLOUDY    63  57  81 S12       30.20F
KANSAS C DTWN  CLOUDY    66  56  70 SE10      30.19F
LEE`S SUMMIT   CLOUDY    64  56  75 SE8       30.21F
ST JOSEPH      CLOUDY    65  57  75 SE9       30.19F
CHILLICOTHE      N/A     68  54  60 S8G17     30.23F
KIRKSVILLE     PTSUNNY   69  54  58 S10G20    30.27F

$$
MOZ066>068-077>081-088>096-101>105-231800-
...SOUTHWEST MISSOURI...

CITY           SKY/WX    TMP DP  RH WIND       PRES   REMARKS
SPRINGFIELD    PTSUNNY   64  56  75 SE18G24   30.24F
JOPLIN         CLOUDY    65  59  81 SE8       30.20F

$$
MOZ032>034-039>042-045>050-055>058-069>072-231800-
...CENTRAL MISSOURI...

CITY           SKY/WX    TMP DP  RH WIND       PRES   REMARKS
COLUMBIA       PTSUNNY   71  53  52 S14       30.27F
JEFFERSON CITY PTSUNNY   71  52  50 S8        30.26F
ROLLA          CLOUDY    68  52  56 SE12      30.28F
SEDALIA        LGT RAIN  67  55  65 S10       30.26F
WHITEMAN AFB   PTSUNNY   64  56  76 S13       30.24F
WARRENSBURG    CLOUDY    64  55  72 S12       30.23F
OSAGE BEACH    CLOUDY    70  52  52 S9        30.27S

$$
MOZ051-052-059>065-231800-
...EAST CENTRAL MISSOURI...

CITY           SKY/WX    TMP DP  RH WIND       PRES   REMARKS
ST LOUIS INTL  PTSUNNY   76  48  37 SE14G24   30.30F
SPIRIT OF STL  PTSUNNY   74  52  46 S9        30.28F
ST CHARLES     PTSUNNY   75  47  36 S16G23    30.29S

$$
MOZ072>076-082>087-097>100-106>115-231800-
...SOUTH CENTRAL AND SOUTHEAST MISSOURI...

CITY           SKY/WX    TMP DP  RH WIND       PRES   REMARKS
CAPE GIRARDEAU PTSUNNY   74  50  42 S8        30.31S
FARMINGTON     PTSUNNY   73  48  40 S14       30.34F
POPLAR BLUFF   PTSUNNY   73  49  42 SE9       30.30F
WEST PLAINS    CLOUDY    67  50  54 S8        30.31S

$$


USA.gov is the U.S. government's official web portal to all federal, state and local government web resources and services.